Location: *
(50.8512°N, 5.6907°E)
Time: 02:48:33
(UTC+00:00)

H-2A R/B - Pass Details

Date: 09 April 2020
Orbit: 734 x 836 km, 98.2° (Epoch: 06 June)

Event Time Altitude Azimuth Distance (km) Brightness Sun altitude
Rises 19:57:46 0° 195° (SSW) 3,279 5.1 -14.4°
Reaches altitude 10° 20:00:24 10° 206° (SSW) 2,338 4.4 -14.8°
Maximum altitude 20:04:52 29° 266° (W) 1,381 3.9 -15.3°
Drops below altitude 10° 20:09:16 10° 326° (NNW) 2,298 5.6 -15.9°
Sets 20:11:50 0° 338° (NNW) 3,214 6.2 -16.2°
